BRO-15

Last updated on Mon Sep 16 2024 00:02:04 GMT+0000 (Coordinated Universal Time)

1 60553U 24149CP 24258.91064360 .00003369 00000+0 32486-3 0 9995 2 60553 97.7437 333.9578 0009773 68.9484 291.2780 14.93535043 4337
UTC large
Height (km)
Speed (km/s)
/
Latitude / Longitude
Inclination (degrees)
Orbital Period (minutes)
Azimuth
Elevation
Range (km)
Doppler Factor

Next 0 passes for location: London (51.5072 / 0.1276)

Sorry there are no passes over London.